Simultaneous Nadir Overpasses (SNOs) Predictions

Prediction of SNOs between AQUA and METOP-B Satellite Orbit:

Table of predicted SNOs for the next 14.0 days since TLE Epoch: 6/1/2013
Index Date (AQUA) Time (AQUA) Lat,Lon (AQUA) SZA (AQUA ) Date (METOP-B) Time (METOP-B) Lat,Lon (METOP-B) SZA (METOP-B ) Distance(km) Time Diff (sec)
1 06/03/2013 10:59:28 -73.74,-170.31 128.64 06/03/2013 10:59:06 -73.74,-170.36 128.63 1.59 22
2 06/03/2013 11:48:57 73.82, -2.85 51.44 06/03/2013 11:49:45 73.82, -2.83 51.44 0.75 48
3 06/06/2013 05:44:07 73.27, 89.47 50.56 06/06/2013 05:42:59 73.20, 87.47 50.56 64.68 68
4 06/06/2013 06:33:42 -73.76,-103.92 128.92 06/06/2013 06:33:29 -73.75,-103.94 128.94 1.93 13
5 06/06/2013 07:23:11 73.85, 63.53 51.16 06/06/2013 07:24:08 73.83, 63.58 51.14 2.82 57
6 06/09/2013 01:18:27 73.64, 155.14 50.70 06/09/2013 01:17:14 73.59, 154.77 50.67 12.73 73
7 06/09/2013 02:07:55 -73.76, -37.48 129.18 06/09/2013 02:07:52 -73.75, -37.54 129.20 2.77 3
8 06/09/2013 02:57:24 73.85, 129.97 50.91 06/09/2013 02:58:31 73.82, 129.97 50.88 3.22 67
9 06/11/2013 20:52:40 73.72,-138.59 50.58 06/11/2013 20:51:33 73.73,-138.49 50.60 3.17 67
10 06/11/2013 21:42:07 -73.79, 28.91 129.36 06/11/2013 21:42:13 -73.79, 28.97 129.36 1.70 6
11 06/11/2013 22:31:38 73.98,-163.88 50.85 06/11/2013 22:32:49 74.01,-163.17 50.85 22.27 71
12 06/14/2013 16:26:52 73.73, -72.15 50.43 06/14/2013 16:25:56 73.72, -72.12 50.43 1.20 56
13 06/14/2013 17:16:19 -73.79, 95.36 129.51 06/14/2013 17:16:36 -73.77, 95.34 129.52 1.50 17




NCC Satellite Simultaneous Nadir Overpasses (SNOs) Prediction Service
